• In United Kingdom
  • List of Countries
  • For 7 days
  • Water Temperature
  • Satellite Maps
  • Weather Map
  • Weather Widgets
  • user-avatar
    Login

    Hourly Weather Darwin

    Today, 22 September, Friday

    Time Temperature Precipitation Wind Pressure Humidity
    00:00 +29°C° 0 mm 2 mps 758 mmHg 72%
    01:00 +29°C° 0.3 mm 2 mps 758 mmHg 74%
    02:00 +28°C° 0.3 mm 1 mps 758 mmHg 76%
    03:00 +28°C° 0 mm 1 mps 758 mmHg 79%
    04:00 +28°C° 0.1 mm 1 mps 759 mmHg 79%
    05:00 +26°C° 0.1 mm 0 mps 759 mmHg 79%
    06:00 +26°C° 0.1 mm 0 mps 759 mmHg 79%
    07:00 +29°C° 0 mm 1 mps 759 mmHg 70%
    08:00 +31°C° 0 mm 1 mps 759 mmHg 61%
    09:00 +34°C° 0 mm 2 mps 759 mmHg 52%
    10:00 +36°C° 0 mm 3 mps 759 mmHg 44%
    11:00 +37°C° 0 mm 3 mps 758 mmHg 37%
    12:00 +40°C° 0 mm 4 mps 758 mmHg 29%
    13:00 +40°C° 0 mm 4 mps 758 mmHg 29%
    14:00 +41°C° 0 mm 5 mps 757 mmHg 29%
    15:00 +41°C° 0 mm 5 mps 756 mmHg 29%
    16:00 +38°C° 0 mm 4 mps 756 mmHg 35%
    17:00 +36°C° 0 mm 4 mps 757 mmHg 42%
    18:00 +34°C° 0 mm 3 mps 757 mmHg 48%
    19:00 +33°C° 0 mm 3 mps 757 mmHg 54%
    20:00 +31°C° 0 mm 3 mps 758 mmHg 60%
    21:00 +30°C° 0 mm 3 mps 758 mmHg 66%
    22:00 +30°C° 0 mm 3 mps 759 mmHg 69%
    23:00 +30°C° 0 mm 2 mps 759 mmHg 71%

    Tomorrow, 23 September, Saturday

    Time Temperature Precipitation Wind Pressure Humidity
    00:00 +29°C° 0 mm 2 mps 759 mmHg 74%
    01:00 +29°C° 0 mm 1 mps 759 mmHg 76%
    02:00 +29°C° 0 mm 1 mps 759 mmHg 78%
    03:00 +28°C° 0 mm 1 mps 759 mmHg 80%
    04:00 +26°C° 0 mm 0 mps 759 mmHg 81%
    05:00 +26°C° 0 mm 0 mps 759 mmHg 83%
    06:00 +25°C° 0 mm 0 mps 759 mmHg 84%
    07:00 +28°C° 0 mm 0 mps 760 mmHg 72%
    08:00 +32°C° 0 mm 1 mps 760 mmHg 60%
    09:00 +35°C° 0 mm 1 mps 760 mmHg 48%
    10:00 +37°C° 0 mm 2 mps 759 mmHg 43%
    11:00 +39°C° 0 mm 2 mps 759 mmHg 37%
    12:00 +40°C° 0 mm 3 mps 759 mmHg 32%
    13:00 +40°C° 0 mm 4 mps 758 mmHg 33%
    14:00 +40°C° 0 mm 4 mps 757 mmHg 35%
    15:00 +39°C° 0 mm 5 mps 757 mmHg 36%
    16:00 +37°C° 0 mm 4 mps 757 mmHg 41%
    17:00 +35°C° 0 mm 4 mps 757 mmHg 47%
    18:00 +34°C° 0 mm 4 mps 757 mmHg 52%
    19:00 +33°C° 0 mm 3 mps 757 mmHg 58%
    20:00 +31°C° 0 mm 3 mps 758 mmHg 65%
    21:00 +30°C° 0 mm 3 mps 759 mmHg 71%
    22:00 +30°C° 0 mm 3 mps 759 mmHg 73%
    23:00 +29°C° 0 mm 3 mps 759 mmHg 76%

    Day after tomorrow, 24 September, Sunday

    Time Temperature Precipitation Wind Pressure Humidity
    00:00 +29°C° 0 mm 2 mps 759 mmHg 79%
    01:00 +29°C° 0 mm 2 mps 759 mmHg 80%
    02:00 +29°C° 0 mm 1 mps 759 mmHg 81%
    03:00 +28°C° 0 mm 1 mps 758 mmHg 82%
    04:00 +28°C° 0 mm 1 mps 758 mmHg 83%
    05:00 +28°C° 0 mm 1 mps 759 mmHg 84%
    06:00 +27°C° 0 mm 1 mps 759 mmHg 85%
    07:00 +30°C° 0.1 mm 1 mps 759 mmHg 74%
    08:00 +32°C° 0.1 mm 1 mps 759 mmHg 62%
    09:00 +35°C° 0.1 mm 1 mps 760 mmHg 51%
    10:00 +36°C° 0 mm 1 mps 759 mmHg 46%
    11:00 +39°C° 0 mm 2 mps 759 mmHg 41%
    12:00 +40°C° 0 mm 3 mps 758 mmHg 36%
    13:00 +40°C° 0 mm 3 mps 757 mmHg 37%
    14:00 +40°C° 0 mm 4 mps 757 mmHg 39%
    15:00 +38°C° 0 mm 4 mps 756 mmHg 41%
    16:00 +37°C° 0 mm 4 mps 756 mmHg 44%
    17:00 +36°C° 0 mm 4 mps 756 mmHg 48%
    18:00 +34°C° 0 mm 3 mps 756 mmHg 52%
    19:00 +33°C° 0 mm 3 mps 757 mmHg 58%
    20:00 +31°C° 0 mm 3 mps 758 mmHg 65%
    21:00 +30°C° 0 mm 3 mps 758 mmHg 71%
    22:00 +30°C° 0 mm 3 mps 758 mmHg 73%
    23:00 +30°C° 0 mm 3 mps 758 mmHg 75%

    25 September, Monday

    Time Temperature Precipitation Wind Pressure Humidity
    00:00 +29°C° 0 mm 3 mps 758 mmHg 77%
    01:00 +29°C° 0 mm 2 mps 758 mmHg 79%
    02:00 +29°C° 0 mm 2 mps 758 mmHg 80%
    03:00 +28°C° 0 mm 2 mps 757 mmHg 81%
    04:00 +28°C° 0 mm 1 mps 758 mmHg 82%
    05:00 +28°C° 0 mm 1 mps 758 mmHg 83%
    06:00 +28°C° 0 mm 1 mps 759 mmHg 85%
    07:00 +30°C° 0 mm 1 mps 759 mmHg 74%
    08:00 +32°C° 0 mm 1 mps 759 mmHg 63%
    09:00 +35°C° 0 mm 1 mps 760 mmHg 53%
    10:00 +36°C° 0.1 mm 1 mps 759 mmHg 49%
    11:00 +38°C° 0.1 mm 2 mps 759 mmHg 46%
    12:00 +39°C° 0.1 mm 3 mps 758 mmHg 42%
    13:00 +38°C° 0.5 mm 3 mps 757 mmHg 45%
    14:00 +37°C° 0.5 mm 3 mps 756 mmHg 48%
    15:00 +35°C° 0.5 mm 3 mps 756 mmHg 52%
    16:00 +35°C° 0.2 mm 3 mps 756 mmHg 52%
    17:00 +35°C° 0.2 mm 3 mps 756 mmHg 53%
    18:00 +34°C° 0.2 mm 2 mps 756 mmHg 54%
    19:00 +33°C° 0.1 mm 3 mps 757 mmHg 59%
    20:00 +33°C° 0.1 mm 3 mps 757 mmHg 64%
    21:00 +32°C° 0.1 mm 4 mps 758 mmHg 69%
    22:00 +30°C° 0.1 mm 3 mps 758 mmHg 72%
    23:00 +30°C° 0.1 mm 3 mps 758 mmHg 75%

    26 September, Tuesday

    Time Temperature Precipitation Wind Pressure Humidity
    00:00 +29°C° 0.1 mm 3 mps 758 mmHg 78%
    01:00 +29°C° 0 mm 3 mps 758 mmHg 79%
    02:00 +29°C° 0 mm 2 mps 758 mmHg 80%
    03:00 +28°C° 0 mm 2 mps 757 mmHg 81%
    04:00 +28°C° 0 mm 2 mps 758 mmHg 82%
    05:00 +28°C° 0 mm 1 mps 758 mmHg 82%
    06:00 +28°C° 0 mm 1 mps 759 mmHg 82%
    07:00 +30°C° 0 mm 1 mps 759 mmHg 73%
    08:00 +32°C° 0 mm 1 mps 759 mmHg 63%
    09:00 +34°C° 0 mm 1 mps 760 mmHg 53%
    10:00 +35°C° 0 mm 1 mps 759 mmHg 49%
    11:00 +38°C° 0 mm 2 mps 759 mmHg 44%
    12:00 +39°C° 0 mm 3 mps 758 mmHg 40%
    13:00 +39°C° 0.1 mm 3 mps 757 mmHg 41%
    14:00 +38°C° 0.1 mm 3 mps 757 mmHg 43%
    15:00 +37°C° 0.1 mm 4 mps 756 mmHg 44%
    16:00 +36°C° 0.1 mm 3 mps 756 mmHg 47%
    17:00 +35°C° 0.1 mm 3 mps 757 mmHg 50%
    18:00 +34°C° 0.1 mm 3 mps 757 mmHg 52%
    19:00 +33°C° 0 mm 3 mps 757 mmHg 58%
    20:00 +31°C° 0 mm 3 mps 758 mmHg 64%
    21:00 +30°C° 0 mm 4 mps 759 mmHg 71%
    22:00 +30°C° 0.1 mm 3 mps 759 mmHg 73%
    23:00 +30°C° 0.1 mm 3 mps 759 mmHg 75%

    27 September, Wednesday

    Time Temperature Precipitation Wind Pressure Humidity
    00:00 +29°C° 0.1 mm 2 mps 759 mmHg 78%
    01:00 +29°C° 0.1 mm 2 mps 759 mmHg 78%
    02:00 +29°C° 0.1 mm 2 mps 758 mmHg 79%
    03:00 +28°C° 0.1 mm 2 mps 758 mmHg 79%
    04:00 +28°C° 0 mm 2 mps 759 mmHg 80%
    05:00 +28°C° 0 mm 1 mps 759 mmHg 81%
    06:00 +28°C° 0 mm 1 mps 760 mmHg 81%
    07:00 +30°C° 0 mm 1 mps 760 mmHg 71%
    08:00 +32°C° 0 mm 1 mps 760 mmHg 61%
    09:00 +34°C° 0 mm 1 mps 760 mmHg 51%
    10:00 +37°C° 0 mm 2 mps 760 mmHg 46%
    11:00 +38°C° 0 mm 2 mps 759 mmHg 41%
    12:00 +40°C° 0 mm 3 mps 759 mmHg 35%
    13:00 +39°C° 0 mm 3 mps 758 mmHg 37%
    14:00 +38°C° 0 mm 4 mps 758 mmHg 39%
    15:00 +37°C° 0 mm 4 mps 757 mmHg 41%
    16:00 +36°C° 0 mm 4 mps 757 mmHg 44%
    17:00 +35°C° 0 mm 4 mps 757 mmHg 47%
    18:00 +34°C° 0 mm 3 mps 758 mmHg 50%
    19:00 +33°C° 0 mm 4 mps 758 mmHg 57%
    20:00 +32°C° 0 mm 4 mps 759 mmHg 63%
    21:00 +30°C° 0 mm 4 mps 759 mmHg 70%
    22:00 +30°C° 0 mm 3 mps 759 mmHg 72%
    23:00 +30°C° 0 mm 3 mps 759 mmHg 75%
    Show more